Weather in Ostashkovo

Russia / Omsk Oblast     54°57′45″N   73°33′19″E
temp.,
°C
wind,
m/s
gust,
m/s
humid.,
%
clouds,
%
prec.,
mm/h
press.,
hPa
HPBL,
m
22 january, sat
sat2200:00−17sse2495100 0.0 103053
03:00−18sse2596100 0.0 103162
06:00−21sse229931 0.0 103220
09:00−23sse2210094 0.0 103320
12:00−17s24955 0.0 103397
15:00−14s24935 0.0 1033131
18:00−21sse2210023 0.0 10349
21:00−23sse2210094 0.0 10369
23 january, sun
sun2300:00−23sse22100100 0.0 103611
03:00−25ssw11100100 0.0 10369
06:00−26sw1110036 0.0 10379
09:00−26sw0110036 0.0 10389
12:00−17sw119460 0.0 103847
15:00−14w129171 0.0 103880
18:00−21w119963 0.0 10399
21:00−23wnw2210088 0.0 10419
24 january, mon
mon2400:00−24wnw1110039 0.0 10419
03:00−25wnw2210057 0.0 104110
06:00−25wnw1110072 0.0 10429
09:00−25wnw1110081 0.0 10439
12:00−16w129550 0.0 104362
15:00−13w239398 0.0 1042104
18:00−18wsw2299100 0.0 10439
21:00−17sw2298100 0.0 104229
25 january, tue
tue2500:00−15sw2493100 0.0 104192
03:00−15sw2493100 0.0 104074
06:00−15ssw2591100 0.0 1039101
09:00−15ssw3691100 0.0 1038122
12:00−13s3787100 0.0 1036194
15:00−11s4788100 0.0 1035244
18:00−12s4891100 0.0 1034185
21:00−12s4991100 0.0 1032231
26 january, wed
wed2600:00−13sse3794100 0.0 1031131
03:00−12sse3695100 0.0 1030153
06:00−11s2596100 0.1 1030163
09:00−13s1197100 0.3 103015
12:00−11wsw229489 0.4 1030183
15:00−11wsw129488 0.0 1029146
18:00−17w22100100 0.1 10319
21:00−19wsw22100100 0.1 103112